Weather History for Asheville, NC

Change the Weather History Date:

Monday, May 21, 2012

  Actual Average Record
Temperature  
Mean Temperature 67 °F 64 °F  
Max Temperature 81 °F 76 °F 93 °F (1941)
Min Temperature 52 °F 53 °F 36 °F (1993)
Degree Days  
Heating Degree Days 0 3  
Month to date heating degree days 36 90  
Since 1 July heating degree days 3300 4162  
Cooling Degree Days 2 2  
Month to date cooling degree days 55 26  
Year to date cooling degree days 69 34  
Growing Degree Days 16 (Base 50)    
Moisture  
Dew Point 54 °F    
Average Humidity 66    
Maximum Humidity 96    
Minimum Humidity 35    
Precipitation  
Precipitation T in 0.12 in 1.78 in (1901)
Month to date precipitation 4.27 2.43  
Year to date precipitation 17.09 17.02  
Snow  
Snow 0.00 in 0.00 in 0.00 in ()
Month to date snowfall 0.0 0.0  
Since 1 July snowfall T 9.9  
Snow Depth 0.00 in    
Sea Level Pressure  
Sea Level Pressure 30.01 in    
Wind  
Wind Speed 4 mph (NW)    
Max Wind Speed 15 mph    
Max Gust Speed 24 mph    
Visibility 10 miles    
Events      
T = Trace of Precipitation, MM = Missing Value Source: NWS Daily Summary

Daily Weather History Graph

Daily Weather History Graph

Search for Another Location

Airport:

Trip Planner

Search our weather history database for the weather conditions in past years. The results will help you decide how hot, cold, wet, or windy it might be!

Date:

Astronomy

May. 21, 2012 Rise Set
Actual Time 6:21 AM EDT 8:32 PM EDT
Civil Twilight 5:52 AM EDT 9:01 PM EDT
Nautical Twilight 5:17 AM EDT 9:36 PM EDT
Astronomical Twilight 4:39 AM EDT 10:15 PM EDT
Moon 6:43 AM EDT (5/21) 9:21 PM EDT (5/21)
Length of Visible Light 15h 09m
Length of Day
14h 11m
New Moon, 0% of the Moon is Illuminated
May 21
New Moon
May 28
First Quarter
Jun 4
Full
Jun 11
Last Quarter
Jun 19
New

Hourly Weather History & Observations

Time (EDT) Temp. Dew Point Humidity Pressure Visibility Wind Dir Wind Speed Gust Speed Precip Events Conditions
12:54 AM 57.9 °F 55.0 °F 90% 30.06 in 10.0 mi Calm Calm - N/A   Clear
1:54 AM 57.0 °F 53.1 °F 87% 30.06 in 10.0 mi Calm Calm - N/A   Clear
2:54 AM 55.9 °F 52.0 °F 87% 30.06 in 10.0 mi Calm Calm - N/A   Clear
3:54 AM 54.0 °F 52.0 °F 93% 30.06 in 10.0 mi Calm Calm - N/A   Scattered Clouds
4:54 AM 54.0 °F 52.0 °F 93% 30.06 in 10.0 mi Calm Calm - N/A   Clear
5:54 AM 52.0 °F 50.0 °F 93% 30.07 in 10.0 mi Calm Calm - N/A   Clear
6:54 AM 53.1 °F 50.0 °F 89% 30.07 in 10.0 mi Calm Calm - N/A   Clear
7:54 AM 55.0 °F 51.1 °F 86% 30.07 in 10.0 mi Calm Calm - N/A   Clear
8:54 AM 59.0 °F 54.0 °F 83% 30.08 in 10.0 mi Calm Calm - N/A   Scattered Clouds
9:54 AM 64.9 °F 54.0 °F 68% 30.06 in 10.0 mi Calm Calm - N/A   Clear
10:54 AM 69.1 °F 54.0 °F 58% 30.04 in 10.0 mi Variable 3.5 mph - N/A   Clear
11:54 AM 73.9 °F 55.9 °F 53% 30.02 in 10.0 mi NW 4.6 mph - N/A   Clear
12:54 PM 75.9 °F 55.0 °F 48% 30.00 in 10.0 mi NNW 6.9 mph - N/A   Clear
1:54 PM 78.1 °F 54.0 °F 43% 29.96 in 10.0 mi Variable 4.6 mph - N/A   Clear
2:54 PM 80.1 °F 50.0 °F 35% 29.94 in 10.0 mi Variable 4.6 mph - N/A   Clear
3:54 PM 75.0 °F 54.0 °F 48% 29.93 in 10.0 mi WNW 11.5 mph - N/A   Clear
4:54 PM 66.9 °F 55.0 °F 66% 29.94 in 10.0 mi South 10.4 mph 20.7 mph N/A   Mostly Cloudy
5:54 PM 64.0 °F 55.9 °F 75% 29.96 in 10.0 mi South 6.9 mph - 0.00 in   Overcast
6:54 PM 64.0 °F 57.0 °F 78% 29.95 in 10.0 mi South 8.1 mph - N/A   Scattered Clouds
7:54 PM 66.0 °F 55.9 °F 70% 29.97 in 10.0 mi North 8.1 mph - N/A   Mostly Cloudy
8:54 PM 64.0 °F 57.0 °F 78% 29.94 in 10.0 mi NW 3.5 mph - N/A   Mostly Cloudy
9:54 PM 62.1 °F 57.9 °F 86% 29.95 in 10.0 mi Calm Calm - N/A   Overcast
10:54 PM 63.0 °F 57.0 °F 81% 29.95 in 10.0 mi North 6.9 mph - N/A   Overcast
11:54 PM 63.0 °F 57.9 °F 84% 29.93 in 10.0 mi North 6.9 mph - N/A   Overcast